Regional Weather Roundup
Issued by NWS

Home | Current Version | Previous Version | Text Only | Print | Product List | Glossary Off
Versions: 1 2 3 4 5 6 7 8 9 10 11 12 13 14 15 16 17 18 19 20 21 22 23 24 25 26 27 28 29 30 31 32 33 34 35 36 37 38 39 40 41 42 43 44 45 46 47 48 49 50

000
ASUS43 KIND 301959
RWRIN

WEATHER ROUNDUP FOR INDIANA
NATIONAL WEATHER SERVICE INDIANAPOLIS IN
400 PM EDT MON MAR 30 2015

NOTE: "FAIR" INDICATES FEW OR NO CLOUDS BELOW 12,000 FEET WITH NO
SIGNIFICANT WEATHER AND/OR OBSTRUCTIONS TO VISIBILITY.

* - STATION DOES NOT REPORT WEATHER SUCH AS PRECIPITATION OR FOG.

+ - STATION NOT QUALITY CONTROLLED BY THE NATIONAL WEATHER SERVICE.
    USE DATA WITH CAUTION...ESPECIALLY DEWPOINT AND RELATIVE
    HUMIDITY OBSERVATIONS.

INZ001>003-010>013-019-020-302100-
NORTHWEST INDIANA

CITY           SKY/WX    TMP DP  RH WIND       PRES   REMARKS
GARY /AIRPORT/ PTSUNNY   63  18  17 W14       29.99F

$$

LMZ046-743>745-302100-
SOUTHERN LAKE MICHIGAN

STATION/POSITION TIME  TEMP WIND        PRES
                       AIR  DIR/SP/G
                 (UTC) (F)  (DEG/KT/KT) (MB)
BURNS HARBOR     1900   52  280/  4/  6 1016.6F
MICHIGAN CITY    1900   51  210/  4/  4   N/A

$$

INZ004-005-014>016-021>024-302100-
NORTH CENTRAL INDIANA

CITY           SKY/WX    TMP DP  RH WIND       PRES   REMARKS
ELKHART        FAIR      55  18  22 W17G25    30.00F
GOSHEN         FAIR      58  26  29 W24G31    29.99F
SOUTH BEND     FAIR      57  23  26 W14       30.01F

$$

INZ006>009-017-018-025>027-302100-
NORTHEAST INDIANA

CITY           SKY/WX    TMP DP  RH WIND       PRES   REMARKS
ANGOLA *+      MOSUNNY   55  27  33 NW18      29.97S
FORT WAYNE     PTSUNNY   58  27  30 W23G31    30.00S

$$

INZ028-029-035-036-043>045-051>053-302100-
WEST CENTRAL INDIANA

CITY           SKY/WX    TMP DP  RH WIND       PRES   REMARKS
GREENCASTLE +  FAIR      59  23  25 W8G18     30.08F
LAFAYETTE      FAIR      60  30  32 W13G21    30.03F
TERRE HAUTE    FAIR      62  33  33 W10       30.08F

$$

INZ030>032-037>040-046>048-054>057-064-065-302100-
CENTRAL INDIANA

CITY           SKY/WX    TMP DP  RH WIND       PRES   REMARKS
ANDERSON       MOSUNNY   57  28  33 NW17G35   30.06F
COLUMBUS       MOSUNNY   59  25  27 MISG      30.07F
GREENWOOD *+   FAIR      59  27  29 W16       30.07F
INDIANAPOLIS   PTSUNNY   60  29  30 W15G22    30.06F
-EAGLE CREEK   FAIR      58  30  34 W12G22    30.06F
KOKOMO *+        N/A     59  36  41 W23G30    30.03F
MT COMFORT *+  FAIR      59  14  17 W21       30.07S
SHELBYVILLE    FAIR      61  32  33 W14G25    30.06F

$$

INZ033-034-041-042-049-050-058-059-302100-
EAST CENTRAL INDIANA

CITY           SKY/WX    TMP DP  RH WIND       PRES   REMARKS
MUNCIE         FAIR      57  34  41 W20G26    30.04F

$$

INZ060-061-067>069-081>083-085>088-302100-
SOUTHWEST INDIANA

CITY           SKY/WX    TMP DP  RH WIND       PRES   REMARKS
EVANSVILLE     FAIR      64  28  25 VRB3      30.14F
HUNTINGBURG *+ FAIR      63  30  29 N8        30.12F

$$

INZ062-063-066-070>080-084-089>092-302100-
SOUTH CENTRAL AND SOUTHEAST INDIANA

CITY           SKY/WX    TMP DP  RH WIND       PRES   REMARKS
BLOOMINGTON    FAIR      61  28  28 NW8       30.09F
SEYMOUR +      FAIR      64  34  32 N14G21    30.07F

$$



USA.gov is the U.S. government's official web portal to all federal, state and local government web resources and services.